This is the latest recevied weather packets stored in our database for station/object HK4RAU-16. If no packets are shown the sender has not sent any weather packets the latest 10 day(s).
| Time | Temp. | Humidity | Pressure | Rain* | Wind** | Luminosity | Snow |
|---|---|---|---|---|---|---|---|
| 1777482297 | 22.22° C | 86% | 1012 hPa | 0 mm | - | - | - |
| 1777481986 | 21.67° C | 85% | 1012 hPa | 0 mm | - | - | - |
| 1777481678 | 21.67° C | 85% | 1012 hPa | 0 mm | - | - | - |
| 1777480759 | 22.22° C | 85% | 1012 hPa | 0 mm | - | - | - |
| 1777478911 | 22.22° C | 82% | 1013 hPa | 0 mm | - | - | - |
| 1777478604 | 22.22° C | 82% | 1013 hPa | 0 mm | - | - | - |
| 1777477978 | 22.22° C | 81% | 1013 hPa | 0 mm | - | - | - |
| 1777477676 | 22.22° C | 81% | 1013 hPa | 0 mm | - | - | - |
| 1777477374 | 22.22° C | 79% | 1013 hPa | 0 mm | - | - | - |
| 1777477067 | 22.22° C | 79% | 1013 hPa | 0 mm | - | - | - |
| 1777476766 | 22.22° C | 79% | 1013 hPa | 0 mm | - | - | - |
| 1777476464 | 22.22° C | 79% | 1014 hPa | 0 mm | - | - | - |
| 1777476163 | 22.22° C | 81% | 1014 hPa | 0 mm | - | - | - |
| 1777475862 | 22.22° C | 81% | 1014 hPa | 0 mm | - | - | - |
| 1777475555 | 21.67° C | 83% | 1014 hPa | 0 mm | - | - | - |
| 1777475254 | 21.67° C | 83% | 1014 hPa | 0 mm | - | - | - |
| 1777474544 | 21.67° C | 83% | 1014 hPa | 0 mm | - | - | - |
| 1777474107 | 21.67° C | 84% | 1014 hPa | 0 mm | - | - | - |
| 1777473396 | 21.11° C | 85% | 1015 hPa | 0 mm | - | - | - |
| 1777472685 | 21.11° C | 85% | 1015 hPa | 0 mm | - | - | - |
| 1777472247 | 18.89° C | 87% | 1015 hPa | 0 mm | - | - | - |
| 1777471941 | 18.89° C | 87% | 1015 hPa | 0 mm | - | - | - |
| 1777471637 | 19.44° C | 87% | 1015 hPa | 0 mm | - | - | - |
| 1777471331 | 19.44° C | 87% | 1015 hPa | 0 mm | - | - | - |
| 1777471024 | 20° C | 87% | 1015 hPa | 0 mm | - | - | - |
* Rain latest hour (hover to see other rain measurements)
** Current wind speed in m/s (hover to see current wind gust speed)